Estación de Peldehue

Ultimos registro cada 15 minutos 42
Estación Fecha / Hora Temperatura Humedad Lluvia Velocidad Dirección Radiación Presion
42 Peldehue 04-05-2026 10:15 21,9 24,3 0 0 185 406,9 935,5
41 Peldehue 04-05-2026 10:00 20,7 27,5 0 0 185 416,9 935,5
40 Peldehue 04-05-2026 09:45 19,8 26,6 0 0 185 444,4 935,4
39 Peldehue 04-05-2026 09:30 17,3 34,6 0 0 185 394,4 935,2
38 Peldehue 04-05-2026 09:15 16 35,4 0 0 185 210,6 935,6
37 Peldehue 04-05-2026 09:00 14,3 41,6 0 0 185 179,4 935,2
36 Peldehue 04-05-2026 08:45 12,3 47,3 0 0 185 78,1 935,3
35 Peldehue 04-05-2026 08:30 11,6 46,2 0 0 185 58,1 935,2
34 Peldehue 04-05-2026 08:15 10,6 47,1 0 0 185 66,9 935,1
33 Peldehue 04-05-2026 08:00 9,8 50 0 0 185 41,9 935
32 Peldehue 04-05-2026 07:45 9,4 48,1 0 0 185 20,6 934,9
31 Peldehue 04-05-2026 07:30 9,1 48,9 0 0 185 5,6 934,9
30 Peldehue 04-05-2026 07:15 9,3 49 0 0 185 1,9 934,9
29 Peldehue 04-05-2026 07:00 9,3 50,2 0 0 185 0,6 934,9
28 Peldehue 04-05-2026 06:45 9,2 51,9 0 0 185 0,6 934,8
27 Peldehue 04-05-2026 06:30 9,8 48,8 0 0 185 0,6 934,9
26 Peldehue 04-05-2026 06:15 9,4 50 0 0 185 0,6 934,9
25 Peldehue 04-05-2026 06:00 9,5 49,1 0 0 185 0,6 934,8
24 Peldehue 04-05-2026 05:45 9,8 47,5 0 0 185 0,6 934,7
23 Peldehue 04-05-2026 05:30 9,5 48,4 0 0 185 0,6 934,9
22 Peldehue 04-05-2026 05:15 9,9 46,8 0 0 185 0,6 934,7
21 Peldehue 04-05-2026 05:00 9,3 46,8 0 0 185 0,6 934,4
20 Peldehue 04-05-2026 04:45 7,8 52,4 0 0 185 0,6 934,5
19 Peldehue 04-05-2026 04:30 8,4 49,7 0 0 185 0,6 934,4
18 Peldehue 04-05-2026 04:15 8,4 49,1 0 0 185 0,6 934,7
17 Peldehue 04-05-2026 04:00 7,8 50,4 0 0 185 0,6 934,9
16 Peldehue 04-05-2026 03:45 9 46,7 0 0,5 185 0,6 934,9
15 Peldehue 04-05-2026 03:30 8,7 46,7 0 0,5 185 0,6 935
14 Peldehue 04-05-2026 03:15 9 46,1 0 0 185 0,6 935,3
13 Peldehue 04-05-2026 03:00 9,1 46,5 0 0 185 0,6 935,3
12 Peldehue 04-05-2026 02:45 9,4 46,7 0 0 185 0,6 935,3
11 Peldehue 04-05-2026 02:30 8,5 48,1 0 0 185 0,6 935,6
10 Peldehue 04-05-2026 02:15 8,7 46,7 0 0 185 0,6 935,9
9 Peldehue 04-05-2026 02:00 10,7 42,5 0 0 185 0,6 936
8 Peldehue 04-05-2026 01:45 10,4 44,1 0 0 185 0,6 936,3
7 Peldehue 04-05-2026 01:30 9,9 44,9 0 0 185 0,6 936,6
6 Peldehue 04-05-2026 01:15 11 41,5 0 0 185 0,6 936,2
5 Peldehue 04-05-2026 01:00 10,8 42,4 0 0 185 0,6 936,3
4 Peldehue 04-05-2026 00:45 9,9 45,1 0 0 185 0,6 936,4
3 Peldehue 04-05-2026 00:30 10,8 41,7 0 0 185 0,6 936,1
2 Peldehue 04-05-2026 00:15 9,9 47 0 0 185 0,6 936,2
1 Peldehue 04-05-2026 00:00 10,5 43,8 0 0 185 0,6 936,4